Temp
63 63 62 62 62 62 62 62 62 62 62 63 63 63 63 63 62 78 90 92 90 73 80 86 88 87 89 86 85 83 79 75 75 75 79 83 83 84 86 84 85 86 85 86 83
62 62 62 62 62 62 62 62 62 62 62 62 62 62 62 62 81 87 87 76 75 75 91 90 87 86 86 84 84 83 77 77 82 82 82 85 87 85 82 82 81 82 82 82 80
62 62 62 62 62 62 61 62 62 62 62 62 62 62 62 66 89 95 77 76 76 79 95 93 90 88 83 85 83 80 80 82 84 85 86 85 84 84 82 78 84 83 82 77 81
61 62 62 61 61 62 61 61 61 62 62 61 61 62 62 80 82 95 76 75 76 90 94 90 88 84 84 83 84 81 83 83 83 83 82 82 84 82 81 82 86 86 86 82 81
61 61 61 61 61 61 61 61 61 61 61 60 61 62 77 87 91 86 78 78 88 92 93 91 87 86 84 85 84 82 83 82 82 83 83 84 79 79 79 82 86 85 83 82 83
60 60 60 60 60 61 61 60 60 59 60 60 61 62 87 84 94 88 88 88 93 93 93 92 92 92 87 85 84 85 83 82 83 84 82 80 79 82 79 82 83 82 82 83 82
60 60 60 60 60 60 60 59 59 59 60 61 63 76 85 92 94 91 91 94 94 95 95 95 94 91 88 84 86 84 78 80 82 82 80 81 76 75 78 82 81 81 83 84 85
59 59 59 60 60 60 60 59 59 61 63 63 65 83 85 95 93 91 92 95 94 94 93 94 93 91 88 87 84 80 80 73 79 79 78 80 71 75 78 80 78 79 80 82 84
59 59 59 59 60 60 59 59 61 65 65 65 81 85 86 86 93 96 97 96 96 95 94 95 94 86 87 81 78 77 75 73 74 79 78 77 73 75 79 78 78 79 78 81 83
59 58 58 59 59 59 58 58 65 67 74 79 85 82 91 89 94 96 94 95 95 95 93 92 89 87 84 83 75 74 74 73 72 75 77 75 74 76 78 77 78 78 79 81 82
59 58 58 58 58 58 63 82 82 82 82 80 80 80 84 92 92 95 95 94 93 91 85 85 85 79 80 79 79 77 75 72 73 75 74 72 73 77 79 77 76 77 78 80 82
58 58 58 58 58 57 66 78 76 77 72 79 80 80 85 89 86 93 97 91 88 84 84 84 80 83 84 81 79 77 74 73 73 74 75 71 75 77 77 76 77 78 80 82 84
57 57 57 57 57 67 69 77 77 77 72 77 81 82 88 90 86 89 96 90 86 82 82 79 83 84 82 82 79 76 77 72 75 72 73 73 72 74 76 77 79 81 81 82 82
57 57 57 55 68 65 76 76 74 74 69 73 78 86 87 89 85 95 96 93 86 82 80 81 85 82 84 80 81 75 78 76 71 73 68 71 66 70 73 75 77 81 81 83 81
56 57 56 55 62 71 75 72 75 75 59 76 80 91 86 87 87 88 94 92 84 83 82 80 81 80 80 79 81 73 78 73 72 69 67 66 67 74 72 75 76 79 81 81 81
56 56 55 57 59 69 70 72 77 68 58 74 82 81 82 83 85 88 89 91 87 82 81 82 84 83 83 78 80 78 76 74 71 70 63 62 65 71 74 74 77 80 82 82 82
56 55 54 62 74 69 71 77 68 62 75 73 76 80 79 78 81 83 82 80 79 73 73 78 80 83 84 78 79 76 74 65 62 62 62 64 64 72 77 78 77 77 80 82 83
53 52 56 63 68 67 73 73 61 70 71 78 77 76 76 78 79 79 78 77 78 78 73 72 70 80 84 80 77 74 72 67 55 58 65 65 62 73 77 78 78 80 81 83 86
52 64 66 71 67 66 75 66 68 70 75 74 76 74 73 76 78 76 77 77 80 80 74 71 72 81 81 83 81 73 70 72 62 59 62 64 69 76 77 79 80 81 83 82 82
56 62 71 73 70 73 71 59 69 73 76 76 71 76 71 74 74 74 74 78 78 80 82 76 69 77 80 82 78 77 75 68 69 55 54 63 63 71 74 76 78 80 78 80 81
60 68 76 73 74 73 67 66 69 77 76 73 74 74 75 73 75 73 75 78 79 76 80 76 73 75 78 76 74 74 73 66 68 66 61 61 68 75 75 75 75 78 78 78 81
58 66 74 73 71 60 67 66 63 74 79 77 76 76 75 75 72 72 73 75 79 80 76 77 71 70 73 77 77 76 73 71 69 62 64 64 68 74 74 75 75 77 78 80 82
58 59 72 73 66 66 66 69 71 73 75 76 75 78 78 74 70 72 73 79 77 78 76 74 69 67 69 74 74 73 72 69 65 65 61 63 68 74 73 75 75 77 79 81 82
59 63 69 68 65 66 64 66 68 75 73 76 75 78 76 73 73 73 75 78 77 76 64 72 67 70 68 70 74 70 71 69 68 65 66 68 68 70 72 74 75 77 80 82 82
57 58 58 63 64 63 64 64 66 67 74 75 75 74 73 71 73 73 75 78 78 68 72 76 70 70 70 73 73 72 72 70 68 69 66 69 69 72 74 75 76 78 79 78 81
59 59 60 60 58 61 57 62 64 67 67 72 71 73 74 72 71 71 76 76 77 77 73 71 68 70 69 71 71 70 72 71 70 69 69 68 69 76 76 78 77 77 76 78 79
56 57 59 53 59 62 63 63 65 65 70 72 69 71 73 70 71 74 75 73 76 76 71 71 69 68 66 67 68 66 73 72 70 72 72 68 76 75 75 77 77 77 78 77 77
MSLP
1019.56 1018.86 1018.56 1018.06 1017.53 1017.05 1016.44 1015.95 1015.43 1014.94 1014.82 1014.40 1013.98 1013.54 1013.19 1013.01 1012.84 1012.54 1011.04 1009.74 1009.72 1010.40 1010.58 1011.13 1011.22 1011.29 1011.13 1011.11 1011.30 1011.28 1010.67 1009.81 1009.40 1009.36 1009.02 1009.52 1009.32 1010.12 1010.29 1010.49 1010.85 1011.39 1011.80 1012.30 1013.23
1019.86 1019.19 1018.32 1018.00 1017.47 1016.88 1016.38 1015.79 1015.31 1014.80 1014.52 1014.24 1013.86 1013.38 1013.09 1012.86 1012.28 1011.14 1009.50 1009.50 1009.44 1010.02 1010.24 1010.37 1010.58 1010.83 1010.68 1010.73 1010.66 1010.37 1010.16 1009.53 1009.37 1009.10 1008.72 1008.92 1008.92 1009.61 1010.12 1010.34 1010.86 1011.37 1012.18 1012.90 1013.57
1020.02 1019.23 1018.54 1017.68 1017.32 1016.66 1016.16 1015.57 1015.12 1014.63 1014.21 1014.00 1013.65 1013.27 1012.98 1012.69 1011.59 1009.86 1009.54 1009.43 1009.78 1010.16 1009.94 1010.00 1010.17 1010.25 1010.22 1010.31 1010.02 1010.16 1009.56 1009.49 1009.10 1009.01 1008.88 1008.89 1009.40 1009.88 1010.00 1010.25 1010.39 1010.89 1011.90 1013.12 1013.40
1019.90 1019.30 1018.67 1017.78 1017.10 1016.37 1015.84 1015.28 1014.76 1014.35 1013.92 1013.67 1013.36 1013.08 1012.84 1012.45 1011.04 1009.64 1009.58 1009.64 1010.16 1010.10 1010.02 1009.93 1009.94 1009.80 1009.60 1009.47 1009.62 1009.56 1009.59 1009.62 1009.58 1009.55 1009.86 1009.90 1010.01 1010.22 1010.58 1010.78 1010.87 1010.97 1011.69 1012.46 1012.84
1019.94 1019.26 1018.48 1017.76 1016.80 1016.22 1015.42 1014.90 1014.36 1013.90 1013.57 1013.32 1013.16 1012.87 1012.60 1011.66 1010.04 1009.76 1009.90 1010.08 1010.28 1010.11 1009.60 1009.42 1009.48 1009.39 1009.21 1009.35 1009.36 1009.42 1009.30 1009.70 1009.95 1009.89 1010.08 1010.34 1010.59 1010.65 1011.09 1011.26 1011.24 1011.30 1011.82 1012.31 1012.58
1019.84 1019.18 1018.32 1017.46 1016.68 1015.98 1015.09 1014.45 1013.81 1013.31 1013.08 1012.93 1012.93 1012.82 1012.20 1010.77 1009.29 1009.56 1009.74 1010.01 1009.76 1009.59 1009.22 1009.22 1008.86 1008.86 1008.94 1009.08 1009.20 1009.16 1009.42 1009.81 1010.00 1010.03 1010.18 1010.30 1010.57 1010.69 1011.45 1011.50 1011.31 1011.66 1012.10 1012.40 1012.60
1019.88 1019.10 1018.28 1017.44 1016.45 1015.68 1014.68 1013.95 1013.22 1012.71 1012.49 1012.50 1012.62 1012.44 1011.58 1009.65 1009.16 1009.39 1009.53 1009.22 1009.15 1008.90 1008.58 1008.76 1008.79 1008.71 1008.80 1008.90 1009.26 1009.40 1009.74 1009.96 1010.04 1010.24 1010.46 1010.68 1010.75 1011.26 1011.91 1011.49 1011.57 1011.74 1012.05 1012.26 1012.32
1019.90 1019.11 1018.28 1017.42 1016.02 1015.16 1014.37 1013.58 1012.83 1012.31 1012.14 1012.34 1012.44 1012.02 1010.48 1009.05 1009.24 1009.25 1009.14 1008.89 1009.00 1008.94 1008.89 1008.72 1008.70 1008.61 1008.67 1009.17 1009.32 1009.39 1009.81 1009.92 1010.23 1010.54 1010.82 1010.86 1010.91 1011.66 1012.12 1011.84 1011.86 1011.95 1012.12 1012.16 1011.94
1019.86 1019.03 1018.24 1017.28 1015.96 1014.84 1014.08 1013.34 1012.67 1012.38 1012.24 1012.39 1012.32 1011.62 1009.72 1009.17 1008.91 1008.62 1008.66 1008.52 1008.45 1008.63 1008.68 1008.67 1008.54 1008.70 1008.80 1008.79 1009.02 1009.43 1009.34 1009.82 1010.38 1010.84 1010.77 1010.91 1010.80 1011.52 1011.93 1011.94 1011.74 1011.99 1012.13 1012.06 1011.92
1020.06 1019.07 1018.23 1017.19 1016.04 1014.78 1013.75 1013.25 1012.67 1012.64 1012.44 1012.20 1011.81 1011.50 1009.49 1009.12 1008.64 1008.47 1008.56 1008.52 1008.30 1008.21 1008.29 1008.43 1008.57 1008.50 1008.68 1008.36 1008.23 1008.79 1009.20 1009.81 1010.30 1011.02 1010.91 1010.75 1010.87 1011.34 1011.62 1011.94 1011.79 1011.87 1011.97 1011.93 1011.85
1020.11 1019.10 1018.07 1017.04 1016.09 1014.98 1013.56 1012.70 1013.15 1012.88 1012.36 1012.10 1011.62 1010.86 1009.85 1009.21 1008.85 1008.18 1008.30 1008.32 1008.28 1008.34 1008.39 1008.76 1008.52 1008.33 1008.42 1008.50 1008.60 1008.86 1009.26 1009.65 1010.27 1011.03 1011.05 1010.94 1010.83 1010.94 1011.40 1011.73 1011.83 1011.85 1011.80 1011.71 1011.50
1020.03 1019.13 1018.00 1016.86 1015.96 1014.90 1014.46 1014.24 1014.92 1015.12 1013.42 1011.72 1011.21 1010.64 1009.96 1009.69 1008.93 1008.04 1008.02 1008.05 1008.15 1008.29 1008.65 1008.80 1008.41 1008.43 1008.40 1008.48 1008.62 1008.92 1009.18 1009.60 1010.28 1010.78 1010.87 1011.13 1010.56 1010.71 1011.19 1011.46 1011.56 1011.52 1011.34 1011.02 1011.00
1019.90 1019.17 1018.14 1016.89 1015.88 1015.09 1015.40 1014.84 1014.98 1014.81 1013.85 1011.57 1010.60 1009.87 1009.31 1009.28 1008.62 1007.90 1007.71 1007.82 1007.99 1008.28 1008.37 1008.39 1008.18 1008.31 1008.28 1008.23 1008.48 1008.93 1008.88 1009.40 1009.93 1010.62 1011.17 1010.91 1010.44 1010.52 1010.80 1010.98 1011.00 1011.00 1011.07 1011.04 1011.18
1019.86 1019.10 1018.45 1017.16 1015.87 1016.41 1015.46 1015.02 1014.99 1014.77 1013.32 1011.24 1010.11 1008.95 1009.04 1008.85 1008.32 1007.61 1007.56 1007.62 1008.00 1008.11 1008.35 1008.32 1008.16 1008.19 1008.05 1008.17 1008.55 1008.92 1009.24 1009.87 1010.38 1010.57 1011.11 1011.47 1010.45 1010.50 1010.73 1010.47 1010.65 1010.60 1010.70 1010.87 1011.12
1019.65 1019.00 1018.61 1018.49 1017.58 1016.38 1015.28 1015.12 1014.66 1014.45 1012.23 1010.52 1009.43 1008.67 1008.61 1008.49 1008.17 1007.76 1007.68 1007.53 1007.84 1008.15 1008.59 1008.14 1008.08 1008.14 1008.06 1008.58 1008.77 1009.68 1009.76 1010.48 1011.15 1011.46 1011.84 1011.80 1011.28 1010.10 1010.38 1010.07 1010.37 1010.43 1010.60 1010.84 1011.01
1019.19 1018.79 1018.57 1018.20 1017.76 1015.67 1015.33 1014.82 1014.16 1013.30 1010.99 1009.59 1008.70 1008.43 1008.46 1008.41 1008.12 1007.94 1007.76 1007.82 1008.32 1008.44 1008.58 1008.34 1008.41 1008.29 1008.16 1009.06 1008.99 1009.85 1010.10 1010.81 1011.48 1011.70 1011.64 1012.15 1011.68 1009.92 1009.98 1010.36 1010.25 1010.34 1010.26 1010.50 1010.69
1018.63 1018.18 1018.30 1017.56 1016.05 1015.46 1015.15 1014.19 1013.36 1011.70 1010.33 1009.45 1008.67 1008.42 1008.40 1008.43 1008.34 1008.18 1008.10 1008.22 1008.30 1008.51 1008.42 1008.37 1008.05 1008.08 1008.31 1008.84 1009.54 1009.92 1009.86 1010.65 1011.24 1011.48 1011.44 1012.08 1011.55 1009.92 1009.86 1010.20 1010.34 1010.23 1010.11 1010.32 1010.45
1018.32 1017.50 1016.96 1016.26 1015.56 1015.50 1014.88 1013.72 1012.32 1010.91 1009.97 1009.34 1008.74 1008.56 1008.33 1008.45 1008.52 1008.46 1008.50 1008.53 1008.72 1008.63 1008.76 1008.43 1008.14 1008.02 1008.34 1008.55 1008.93 1009.66 1010.15 1010.34 1010.60 1011.21 1011.22 1011.80 1010.81 1009.90 1010.22 1010.38 1010.27 1010.30 1010.26 1010.12 1009.88
1018.00 1016.61 1016.21 1015.24 1015.36 1015.33 1014.42 1012.92 1011.50 1010.68 1010.01 1009.37 1008.79 1008.50 1008.50 1008.49 1008.54 1008.71 1008.64 1008.56 1008.42 1008.54 1008.64 1008.60 1008.37 1008.26 1008.45 1008.58 1009.10 1009.82 1010.30 1010.89 1011.26 1012.12 1011.43 1011.14 1010.60 1009.99 1010.09 1010.00 1009.99 1009.96 1009.90 1010.00 1010.11
1018.63 1017.22 1015.52 1014.72 1014.96 1014.57 1013.78 1012.66 1011.46 1010.68 1010.06 1009.60 1008.73 1008.34 1008.28 1008.44 1008.66 1008.78 1008.70 1008.35 1008.39 1008.44 1008.51 1008.83 1008.79 1008.61 1008.63 1008.84 1009.55 1009.60 1010.58 1010.98 1011.04 1011.30 1011.05 1010.77 1010.50 1009.84 1009.85 1009.90 1010.11 1010.12 1010.28 1010.30 1010.27
1018.58 1017.04 1014.98 1014.62 1014.62 1014.05 1013.50 1012.68 1011.69 1010.52 1010.21 1009.71 1008.93 1008.43 1008.32 1008.41 1008.55 1008.74 1008.63 1008.46 1008.49 1008.80 1008.94 1009.28 1009.36 1009.12 1008.98 1009.05 1009.38 1010.08 1010.30 1011.19 1011.43 1011.53 1010.95 1010.50 1009.85 1010.03 1010.18 1010.43 1010.64 1010.71 1010.80 1010.83 1010.54
1018.98 1017.08 1014.90 1014.65 1014.72 1014.82 1013.75 1013.14 1012.21 1010.80 1010.00 1009.62 1009.29 1008.72 1008.52 1008.56 1008.63 1008.79 1008.69 1008.66 1008.68 1008.85 1009.16 1009.54 1009.83 1009.40 1009.17 1009.57 1009.89 1009.87 1010.20 1010.70 1010.87 1011.44 1011.36 1011.00 1010.31 1010.58 1010.76 1010.90 1011.00 1011.01 1011.10 1011.10 1010.94
1019.42 1017.66 1015.09 1014.61 1014.69 1014.47 1013.90 1013.04 1012.31 1011.11 1010.27 1009.66 1009.26 1008.82 1008.70 1008.72 1008.93 1008.79 1008.77 1008.70 1008.81 1008.93 1009.11 1009.62 1010.06 1009.77 1009.56 1009.89 1010.03 1009.99 1010.46 1011.00 1011.38 1011.35 1010.96 1010.54 1010.19 1010.78 1011.06 1011.16 1011.34 1011.19 1011.19 1011.09 1011.03
1019.74 1018.08 1016.18 1015.30 1015.50 1014.76 1014.19 1013.50 1012.47 1011.44 1010.88 1010.28 1009.84 1009.24 1008.96 1009.08 1009.14 1008.86 1008.81 1008.88 1009.10 1009.32 1009.36 1009.44 1010.01 1009.59 1009.36 1009.37 1009.68 1009.84 1010.28 1010.81 1010.98 1010.91 1010.42 1009.95 1010.13 1010.75 1011.11 1011.10 1011.26 1011.18 1011.21 1011.19 1011.18
1020.04 1018.92 1018.44 1016.56 1015.97 1015.34 1014.71 1014.15 1013.17 1012.12 1011.41 1010.87 1010.26 1009.94 1009.60 1009.60 1009.49 1009.04 1008.99 1008.97 1009.26 1009.64 1009.91 1009.72 1009.92 1010.09 1009.89 1009.78 1009.67 1009.72 1009.91 1010.36 1010.54 1010.45 1010.31 1009.90 1009.98 1010.37 1010.84 1010.90 1011.09 1011.06 1011.24 1011.38 1011.28
1020.17 1019.48 1018.68 1017.53 1016.83 1015.89 1015.21 1014.60 1013.84 1013.04 1012.42 1011.37 1010.99 1010.60 1010.31 1010.30 1010.50 1009.89 1009.39 1009.18 1009.24 1009.74 1010.01 1010.32 1010.38 1010.28 1010.12 1010.09 1010.04 1009.93 1009.90 1010.20 1010.18 1010.24 1010.18 1010.00 1009.91 1010.30 1010.72 1010.82 1010.90 1011.07 1011.33 1011.30 1011.45
1020.68 1020.28 1019.23 1018.00 1016.97 1016.16 1015.37 1014.91 1014.40 1013.99 1012.81 1012.38 1012.12 1011.41 1011.04 1011.33 1011.17 1010.63 1010.27 1009.88 1009.49 1009.58 1010.15 1010.51 1010.48 1010.46 1010.32 1010.56 1010.47 1010.14 1009.44 1009.56 1009.75 1009.80 1009.67 1009.42 1009.27 1010.17 1010.51 1010.56 1010.72 1010.98 1011.17 1011.39 1011.72
Wind_Speed
21 21 20 20 19 19 19 18 18 17 14 13 13 12 12 10 4 3 5 2 5 13 8 9 4 4 2 3 1 1 2 3 2 4 2 6 6 5 2 7 4 3 1 3 15
19 20 22 20 20 20 19 18 18 17 15 14 12 13 11 10 2 6 1 8 15 14 7 5 5 6 3 4 4 4 2 2 2 3 6 10 11 9 6 7 3 4 6 10 15
19 20 21 23 21 21 19 20 18 18 15 14 12 12 10 7 4 0 4 8 13 8 3 2 6 2 2 2 5 4 2 2 4 7 8 11 7 1 1 4 4 3 8 11 13
20 20 21 23 22 23 21 20 19 17 16 13 13 11 9 3 2 3 5 7 10 5 4 4 4 3 2 3 3 4 1 3 6 3 0 3 7 2 2 6 4 2 9 14 15
20 21 22 23 24 23 23 21 19 17 15 12 11 9 3 2 4 4 7 9 9 5 5 4 4 3 2 2 3 3 0 4 3 6 4 3 5 3 6 9 7 3 10 11 11
22 22 23 25 25 24 23 21 19 17 13 10 8 6 1 4 3 8 9 6 5 6 6 6 3 2 1 1 4 2 2 5 3 4 3 1 2 1 4 6 6 3 3 5 9
22 23 24 26 26 24 24 22 20 15 9 7 5 2 1 6 2 6 7 3 2 2 6 2 1 3 1 2 2 8 5 1 1 4 1 2 0 4 6 5 8 6 3 4 6
22 23 25 26 28 27 25 22 18 10 1 4 6 1 6 1 5 4 3 4 4 4 3 2 1 1 1 3 3 2 3 3 4 4 2 3 1 4 4 1 4 3 1 3 5
23 23 25 27 28 29 25 22 10 5 6 6 2 1 4 1 3 2 4 2 2 3 1 3 1 3 2 1 3 1 1 3 2 6 2 3 1 1 2 3 2 4 1 3 4
22 23 25 26 28 29 26 7 3 2 2 2 1 2 2 1 3 2 2 1 0 1 1 3 4 2 2 3 3 3 1 1 1 5 2 1 1 2 3 6 4 3 1 2 5
23 23 25 27 28 27 13 1 4 2 5 2 2 4 3 9 3 3 3 5 2 3 1 4 2 5 10 4 2 5 3 2 1 2 3 3 4 4 5 5 4 1 1 2 4
23 24 26 27 26 22 2 6 4 3 7 2 6 7 6 2 4 3 6 3 2 2 1 2 2 2 6 1 3 3 4 3 1 1 2 4 8 5 5 0 3 4 3 4 6
22 22 25 29 30 4 5 8 4 2 3 6 3 3 2 7 3 4 6 3 2 2 2 3 2 2 2 4 4 2 7 6 2 1 4 7 3 2 2 3 5 3 3 2 8
22 21 21 31 1 4 2 2 7 4 1 3 3 3 5 3 4 4 3 3 2 3 2 5 1 3 8 2 3 7 4 3 6 3 3 5 4 1 1 7 2 2 2 4 7
22 21 18 8 6 4 3 8 2 3 1 1 3 1 2 5 2 3 0 1 5 4 4 3 3 3 7 3 3 3 7 9 5 4 4 3 4 2 2 5 6 3 2 2 3
24 21 18 3 2 6 9 9 3 2 2 2 3 5 6 1 1 1 2 4 3 3 1 6 2 4 1 5 4 12 15 9 3 1 4 2 2 3 4 4 5 4 7 6 6
27 24 14 2 3 4 8 2 2 2 1 1 2 3 2 3 3 1 2 3 4 3 2 3 1 2 2 6 3 3 7 3 3 3 3 1 5 5 5 3 4 9 11 9 7
28 26 5 5 5 6 2 2 1 0 2 1 1 3 6 6 4 3 3 3 1 3 2 2 4 1 3 1 3 7 1 3 5 4 1 3 4 3 3 10 8 7 9 8 11
27 3 2 2 3 3 0 2 2 0 2 4 2 3 3 2 2 4 5 5 5 9 5 4 4 1 2 2 1 4 5 3 6 1 3 1 3 5 1 4 7 8 9 11 12
6 5 3 6 5 0 0 2 2 2 4 1 1 2 3 3 6 6 7 3 6 11 1 4 4 0 2 4 9 2 6 2 2 4 3 2 4 2 3 5 8 11 13 14 13
2 4 2 2 3 3 2 2 4 4 3 3 2 1 2 3 5 4 3 1 2 3 3 5 2 1 2 2 1 4 3 5 2 3 2 2 2 4 3 3 7 9 10 9 10
3 2 3 1 1 1 1 2 4 4 1 1 2 1 1 3 4 4 5 3 2 7 7 3 4 3 1 2 3 1 1 3 3 4 0 3 2 3 3 0 2 7 8 8 9
3 4 2 2 2 1 3 3 3 3 4 3 2 2 1 1 2 4 3 2 2 7 7 8 2 2 2 3 3 3 2 3 4 0 6 4 2 3 3 6 6 7 7 8 8
1 1 2 3 2 1 1 2 5 3 4 3 3 2 1 1 1 2 2 1 2 2 4 7 3 3 5 1 1 2 3 3 3 3 3 7 4 5 5 5 5 6 6 7 7
2 2 2 1 3 1 1 1 4 4 2 2 2 4 0 1 1 2 1 1 3 3 2 2 3 2 1 2 4 3 5 6 8 5 6 5 6 6 6 5 4 5 5 5 7
0 0 1 1 2 2 1 1 2 4 2 2 4 10 1 2 1 3 1 3 1 3 2 2 3 2 2 3 1 4 6 6 7 4 7 3 5 4 4 4 4 3 2 5 6
1 1 3 1 0 2 2 1 2 4 3 5 8 5 2 4 6 7 5 4 1 2 3 1 5 4 3 3 0 7 9 9 3 5 4 7 3 9 7 5 3 2 1 4 5
Wind_Direction
356 350 350 346 341 341 337 335 333 330 332 328 326 326 326 327 314 208 249 180 181 148 120 131 109 105 116 85 67 176 270 245 231 204 163 166 162 172 157 143 145 112 359 76 141
356 349 341 344 339 335 335 330 329 325 328 326 325 321 322 326 246 246 221 138 144 163 127 158 145 156 117 132 179 204 229 258 258 223 204 183 183 157 170 138 132 158 89 126 153
352 348 341 337 336 332 331 326 326 322 322 321 318 316 318 313 289 221 79 163 157 167 112 137 115 129 130 212 197 151 296 292 242 244 180 174 156 151 199 165 171 173 141 159 171
349 348 341 335 333 329 327 324 321 318 315 314 312 312 317 242 192 46 95 145 139 195 135 139 140 155 192 231 186 248 205 266 341 204 2 137 115 76 336 39 359 233 169 172 187
347 344 340 335 330 328 323 323 317 311 307 305 304 310 279 231 252 107 106 123 151 190 195 214 190 153 300 225 208 239 96 77 90 104 91 62 47 57 56 3 353 85 157 188 205
346 342 340 333 328 326 322 322 313 305 298 291 286 291 195 239 94 144 138 160 187 213 181 186 321 317 276 186 245 129 76 84 53 59 91 115 50 318 46 359 70 93 177 205 224
343 340 337 331 325 325 326 323 315 305 291 267 244 240 166 238 83 161 179 199 223 251 314 102 103 295 110 148 109 126 116 90 347 344 101 344 173 58 357 20 67 86 166 228 248
340 337 334 328 328 328 329 324 315 318 298 192 195 179 248 105 130 169 189 252 199 242 268 345 122 150 16 115 82 160 153 223 58 338 57 298 5 86 4 157 104 115 32 309 293
337 334 333 329 329 327 328 322 319 30 112 145 159 263 254 153 261 124 199 238 176 144 149 102 68 32 139 96 157 111 146 232 152 11 285 259 29 98 153 6 330 19 52 321 319
333 333 329 330 328 326 325 290 303 284 170 229 108 201 243 349 315 318 130 194 139 355 72 35 32 317 37 324 123 76 73 217 261 9 20 163 227 209 270 336 253 162 95 266 298
331 333 330 330 327 328 341 298 360 7 32 305 306 291 297 311 270 218 157 125 106 66 337 26 299 357 342 315 162 151 162 217 126 82 280 331 282 261 304 292 263 201 341 245 324
332 332 332 329 328 320 288 69 73 347 309 266 251 263 262 261 303 226 157 169 162 143 198 248 219 290 320 143 141 142 179 203 224 359 309 2 310 316 349 2 264 325 329 24 19
331 332 333 327 321 358 346 117 11 185 265 296 240 241 240 174 238 251 180 149 138 179 214 243 287 288 344 342 257 257 229 182 269 101 98 320 256 11 49 316 325 315 244 30 17
328 331 337 326 324 342 282 57 332 196 333 273 230 249 172 193 247 208 213 149 136 241 192 257 211 308 329 305 213 292 298 156 142 178 328 353 331 142 349 317 3 345 263 360 357
325 329 336 329 308 285 24 326 326 209 91 117 174 25 101 196 345 148 2 114 197 201 210 276 255 275 306 14 226 3 111 104 89 58 313 42 286 46 339 57 33 77 40 3 3
323 326 336 125 230 263 319 314 195 245 71 98 136 157 149 344 21 332 130 66 76 132 278 278 311 250 62 49 115 139 104 93 95 23 266 46 316 319 3 6 332 303 305 310 328
320 321 313 231 280 342 311 229 180 264 307 38 153 155 140 151 220 8 134 133 192 179 237 308 281 287 149 111 174 181 159 126 205 235 281 184 222 283 293 327 315 323 330 342 329
323 315 188 231 275 329 257 171 186 43 340 7 75 116 186 160 202 167 145 211 144 108 123 322 180 211 122 291 221 171 264 212 209 202 314 170 240 92 351 316 296 309 325 336 360
318 323 253 246 206 173 209 189 168 346 326 328 105 161 181 176 215 194 221 239 225 184 210 176 256 319 63 115 263 150 214 68 108 36 251 2 254 260 54 40 26 17 4 2 2
326 331 279 332 172 202 96 236 235 211 334 295 224 196 146 170 184 195 181 202 224 200 233 187 268 43 82 143 61 249 118 192 119 167 234 221 276 258 310 15 17 10 1 357 4
349 322 59 346 235 50 281 254 287 268 229 219 357 123 167 164 194 191 205 187 209 136 134 141 224 187 244 19 316 161 178 68 92 309 216 236 209 192 195 39 9 14 26 29 33
346 275 31 275 352 41 293 298 314 290 316 295 256 291 295 162 155 213 229 245 157 167 165 159 140 219 89 10 282 330 134 177 261 190 256 315 246 54 250 353 29 69 57 49 36
355 289 336 312 240 115 309 293 282 311 325 353 315 41 61 173 204 208 201 229 305 182 164 175 184 166 147 176 167 249 124 88 92 238 206 230 168 27 146 116 73 71 57 54 28
273 321 317 62 14 108 30 350 318 298 273 291 295 290 107 201 237 179 202 31 90 156 82 111 137 202 249 179 104 221 194 168 191 225 174 235 151 144 146 126 105 95 64 35 17
352 91 359 85 86 54 209 326 320 337 302 306 203 21 233 320 270 170 182 157 108 146 55 157 165 180 191 245 199 222 237 186 209 225 252 347 215 157 174 150 120 94 57 21 10
40 281 136 339 298 217 345 135 312 329 290 36 11 334 225 105 358 311 277 209 172 123 79 12 143 154 186 349 251 275 265 255 249 236 235 224 214 167 184 176 135 107 49 8 2
104 148 276 59 359 221 156 128 147 350 231 259 326 304 83 22 317 289 293 338 63 130 115 67 147 170 204 36 283 271 259 231 214 202 203 226 225 165 191 179 158 182 25 343 348